DW5914 Weather Reports


Display with metric or nautical units.
time (UTC)temp
F
wind
direction
speed
MPH
gust
MPH
rain 1hr
in
rain 24hr
in
rain mn
in
humidity
%
barometer
mb
20260904164604 57 181 0.0 0.0 0.00 0.00 0.00 91 1015.4
20260904163104 55 182 0.0 5.0 0.00 0.00 0.00 91 1015.5
20260904161556 55 250 1.0 3.0 0.00 0.00 0.00 91 1015.6
20260904160056 55 177 1.0 5.0 0.00 0.00 0.00 91 1015.6
20260904154554 54 177 0.0 4.0 0.00 0.00 0.00 91 1015.5
20260904153102 54 174 1.0 4.0 0.00 0.00 0.00 91 1015.3
20260904151552 54 146 0.0 0.0 0.00 0.00 0.00 90 1015.3
20260904150050 54 146 0.0 0.0 0.00 0.00 0.00 90 1014.9
20260904144548 54 146 0.0 0.0 0.00 0.02 0.00 90 1014.7
20260904143046 54 146 0.0 0.0 0.00 0.02 0.00 89 1014.6
20260904141604 54 146 0.0 0.0 0.00 0.02 0.00 88 1014.3
20260904140043 54 146 0.0 1.0 0.00 0.02 0.00 87 1014.2
20260904134541 55 145 0.0 3.0 0.00 0.02 0.00 87 1014.1
20260904133043 55 119 1.0 5.0 0.00 0.02 0.00 86 1014.0
20260904131556 55 121 2.0 5.0 0.00 0.02 0.00 85 1013.9
20260904130038 55 105 2.0 5.0 0.00 0.02 0.00 86 1013.7
20260904124542 55 105 1.0 5.0 0.00 0.02 0.00 86 1013.7
20260904123038 55 105 1.0 3.0 0.00 0.02 0.00 87 1013.6
20260904121534 54 160 0.0 3.0 0.00 0.02 0.00 87 1013.5
20260904120032 55 161 0.0 4.0 0.00 0.02 0.00 86 1013.1
20260904114541 55 17 1.0 5.0 0.00 0.02 0.00 85 1013.1
20260904113033 55 70 1.0 9.0 0.00 0.02 0.00 85 1013.0
20260904111533 55 78 4.0 8.0 0.00 0.02 0.00 87 1012.9
20260904110035 55 117 1.0 4.0 0.00 0.02 0.00 88 1012.9
20260904104528 54 146 1.0 2.0 0.00 0.02 0.00 88 1012.9
20260904103027 54 119 0.0 1.0 0.00 0.02 0.00 87 1012.7
20260904101525 55 119 0.0 3.0 0.00 0.02 0.00 87 1012.6
20260904100025 55 69 0.0 0.0 0.00 0.02 0.00 88 1012.7
20260904094523 55 69 0.0 0.0 0.00 0.02 0.00 87 1012.8
20260904093023 55 69 0.0 0.0 0.00 0.02 0.00 87 1012.7
20260904091521 56 69 0.0 5.0 0.00 0.02 0.00 87 1012.8
20260904090023 56 65 1.0 3.0 0.00 0.02 0.00 87 1012.8
20260904084520 56 69 0.0 0.0 0.00 0.02 0.00 87 1012.7
20260904083021 56 69 1.0 3.0 0.00 0.02 0.00 86 1012.8
20260904081518 56 76 1.0 3.0 0.00 0.02 0.00 86 1012.8
20260904080016 56 86 1.0 4.0 0.00 0.02 0.00 84 1012.8
20260904074516 56 78 1.0 4.0 0.00 0.02 0.00 83 1012.9
20260904073016 56 73 0.0 3.0 0.00 0.02 0.00 82 1012.8
20260904071528 56 70 2.0 4.0 0.00 0.02 0.00 81 1012.7
20260904070012 57 51 1.0 4.0 0.00 0.02 0.02 80 1012.6
20260904064507 57 78 0.0 3.0 0.00 0.02 0.02 80 1012.5
20260904063007 56 79 2.0 5.0 0.00 0.02 0.02 80 1012.5
20260904061505 57 78 1.0 3.0 0.00 0.02 0.02 79 1012.4
20260904060004 57 80 2.0 3.0 0.00 0.02 0.02 78 1012.3
20260904054504 57 80 1.0 3.0 0.00 0.02 0.02 79 1012.3
20260904053003 57 71 2.0 3.0 0.00 0.02 0.02 78 1012.2
20260904051502 58 63 1.0 2.0 0.00 0.02 0.02 78 1012.3
20260904050002 57 62 1.0 4.0 0.00 0.02 0.02 78 1012.2
20260904044504 58 65 1.0 5.0 0.00 0.02 0.02 77 1012.1
20260904043001 58 66 3.0 5.0 0.00 0.02 0.02 77 1012.1
20260904041600 58 44 3.0 4.0 0.00 0.02 0.02 76 1012.0
20260904040059 58 80 2.0 4.0 0.00 0.02 0.02 76 1012.0
20260904034609 59 87 1.0 3.0 0.00 0.02 0.02 75 1011.9
20260904033056 59 100 2.0 5.0 0.00 0.02 0.02 75 1011.9
20260904031555 59 134 0.0 3.0 0.00 0.02 0.02 74 1011.7
20260904030053 59 217 0.0 0.0 0.00 0.02 0.02 75 1011.5
20260904024554 61 234 0.0 0.0 0.00 0.02 0.02 73 1011.3
20260904023053 62 235 0.0 0.0 0.00 0.02 0.02 71 1011.2
20260904021551 63 235 0.0 3.0 0.00 0.02 0.02 69 1011.1
20260904020051 64 180 0.0 3.0 0.00 0.02 0.02 66 1011.0
20260904014551 64 278 0.0 2.0 0.00 0.02 0.02 63 1011.0
20260904013051 65 205 3.0 4.0 0.00 0.02 0.02 63 1010.9
20260904011549 65 340 2.0 5.0 0.00 0.02 0.02 63 1010.9
20260904010054 65 211 3.0 8.0 0.00 0.02 0.02 62 1010.8
20260904004559 66 333 2.0 6.0 0.00 0.07 0.02 62 1010.8
20260904003050 65 167 3.0 7.0 0.00 0.07 0.02 61 1010.8
20260904001547 66 306 3.0 7.0 0.00 0.07 0.02 61 1010.8
20260904000111 66 277 4.0 11.0 0.00 0.07 0.02 61 1010.7
20260903234547 66 241 3.0 8.0 0.00 0.08 0.02 61 1010.7
20260903233047 65 153 3.0 9.0 0.00 0.08 0.02 62 1010.8
20260903231546 65 205 2.0 6.0 0.00 0.08 0.02 64 1010.8
20260903230048 65 259 2.0 8.0 0.00 0.08 0.02 63 1010.9
20260903224544 66 180 3.0 13.0 0.00 0.08 0.02 62 1011.0
20260903223044 66 196 4.0 12.0 0.00 0.08 0.02 63 1011.1
20260903221543 66 240 6.0 13.0 0.00 0.08 0.02 61 1011.1
20260903220043 66 192 2.0 9.0 0.00 0.08 0.02 63 1011.2
20260903214541 66 226 3.0 13.0 0.00 0.08 0.02 64 1011.2
20260903213039 65 215 3.0 10.0 0.00 0.08 0.02 65 1011.3
20260903211601 64 165 7.0 13.0 0.00 0.08 0.02 67 1011.3
20260903210032 64 30 3.0 10.0 0.00 0.08 0.02 68 1011.3
20260903204533 64 346 3.0 8.0 0.00 0.08 0.02 67 1011.2
20260903203029 63 173 4.0 11.0 0.00 0.08 0.02 69 1011.1
20260903201528 64 134 5.0 9.0 0.00 0.08 0.02 68 1011.2
20260903200027 64 9 2.0 11.0 0.00 0.08 0.02 68 1011.2
20260903194525 63 143 6.0 10.0 0.00 0.08 0.02 69 1011.1
20260903193023 63 265 4.0 7.0 0.00 0.08 0.02 71 1011.1
20260903191524 62 328 3.0 5.0 0.00 0.08 0.02 72 1011.0
20260903190021 62 13 3.0 7.0 0.00 0.08 0.02 72 1011.2
20260903184520 62 49 3.0 15.0 0.00 0.08 0.02 72 1011.2
20260903183018 62 190 5.0 9.0 0.00 0.08 0.02 73 1011.2
20260903181518 62 341 3.0 12.0 0.00 0.08 0.02 73 1011.0
20260903180017 61 106 3.0 10.0 0.00 0.08 0.02 76 1011.0
20260903174529 61 69 4.0 15.0 0.00 0.08 0.02 75 1010.8
20260903173020 61 222 4.0 9.0 0.00 0.08 0.02 76 1010.7
20260903171504 61 332 1.0 11.0 0.00 0.08 0.02 76 1010.6
20260903170111 59 103 3.0 7.0 0.00 0.08 0.02 79 1010.6